Location: Unspecified
(0.0000°N, 0.0000°E)
Time: 20:00:44
(UTC+00:00)

ISS - Pass Details

Date: 13 May 2026
Orbit: 414 x 424 km, 51.6° (Epoch: 10 May)

Event Time Altitude Azimuth Distance (km) Brightness Sun altitude
Exits shadow 04:49:40 13° 187° (S) 1,328 -1.5 -15.8°
Drops below altitude 10° 04:50:14 10° 180° (S) 1,503 -1.1 -15.7°
Sets 04:52:38 0° 165° (SSE) 2,371 0.0 -15.1°
